COSMOS 970 DEB, 64986

Orbit data source: Space-Track

COSMOS 970 DEB, 64986 is space debris in LEO originally from a launch on Wed, 21 Dec 1977 UTC launched from the Tyuratam Missile And Space Complex (TTMTR). Debris objects in space refer to the collection of defunct objects orbiting the Earth. Examples of debris include non-operational satellites, rocket bodies, and fragments generated from explosions, collisions, or faulty payload assembly.

Loading next visibility...
Identifier
64986, 1977-121CX
Orbit
LEO
Country
Flag of CISCIS
Related business
Manufacturer
Unknown
Mission
Spacecraft
Bus & Motor
Unknown
Mass
Unknown
Launch date (UTC)
1977-12-21 (48 years ago)
Launch vehicle
Unknown
Launch site
Tyuratam Missile And Space Complex (TTMTR)
Object type
Payload
Rocket body
Debris
Shape & HBR
Unknown shape, 0.1 m
Radar Cross Section
Small (<0.1 m²)

Expand to show TLE details & history
Last TLE update: 2 days ago

TLE from 2 days ago
0 COSMOS 970 DEB
1 64986U 77121CX  26170.10210459  .00000257  00000-0  37203-3 0  9991
2 64986  65.7774  98.5539 0093210  43.5379 335.1803 13.69840559616822
Epoch: 2026-06-19T02:27Z
TLE epoch observation values (Epoch: 2026-06-19T02:27:01.836Z)
Latitude
16.60905°
Longitude
162.13189°
Altitude
939.175 km
Speed
7.415 km/s
True Right ascension
07h 04m 54s
True Declination
16° 31' 03"
Sunlit
Object was in daylight at epoch
Visualization orbit readout
Latitude
Unknown
Longitude
Unknown
Altitude
Unknown
Speed
Unknown
Apparent Right ascension
Unknown
Apparent Declination
Unknown
Sunlit
N/A
Visualization observer readout
Local Sidereal Time
07:17:36
Azimuth
Unknown
Elevation
Unknown
Doppler factor
Unknown
Orbital elements
Apogee altitude
1,067.43 km
Perigee altitude
929.911 km
Semi-major axis
7,376.808 km
Eccentricity
0.00932
Inclination
65.7774°
RAAN
98.5539°
Arg. of periapsis
43.5379°
True anomaly
334.72716°
Mean anomaly
335.1803°
Eccentric anomaly
334.95421°
Mean motion
3.42563 °/min
Orbital period
105.09 mins
BSTAR
0.00037203
Loading maneuver chart data...
Computing Atmospheric mass density...
Loading historical data...
Loading historical data...
Loading historical data...
Loading historical data...
Loading historical data...
Loading historical data...
Loading historical data...

Documentation

Showing up to 5 results
|